Theta_e
313 314 314 314 314 315 315 314 314 314 313 313 314 313 310 309 305 298 295 302 308 314 314 301 301 302 308 307 309 311 306 302 302 301 303 296 297 294 294 295 294 295 297 298 300
312 312 313 313 313 314 314 314 314 314 313 313 313 314 313 308 295 294 300 311 312 312 301 302 303 305 305 303 305 309 305 304 303 303 300 296 297 295 293 294 293 293 295 297 298
310 311 312 313 313 313 314 314 313 314 313 312 313 313 314 304 293 291 304 310 310 308 300 300 301 303 302 301 298 300 304 299 294 294 295 295 293 293 293 293 297 294 295 296 297
309 310 310 311 312 313 313 313 313 313 313 312 312 313 314 295 289 294 306 307 307 301 299 300 301 301 301 300 294 298 292 292 291 291 291 292 291 291 293 298 294 296 297 296 296
309 309 309 310 311 312 312 312 313 313 313 312 312 312 298 292 290 296 303 300 298 298 296 298 300 300 299 294 294 295 291 289 289 289 289 289 290 291 291 296 294 294 294 295 297
310 310 309 310 311 312 312 312 312 312 312 312 312 311 293 290 294 296 295 297 296 297 295 296 297 297 293 290 294 290 290 289 289 289 289 288 289 288 293 294 293 292 293 295 296
310 310 310 310 311 311 311 312 310 312 312 311 311 294 293 290 294 296 295 295 295 295 294 294 295 295 292 289 289 289 288 288 288 288 288 288 289 288 294 291 292 292 294 294 295
310 310 310 310 310 311 310 310 309 308 310 310 304 294 290 294 296 295 296 296 298 297 295 294 295 292 290 290 289 287 288 288 287 287 288 288 291 292 292 292 292 293 294 293 295
310 310 310 310 310 310 308 307 308 305 303 306 296 293 289 298 293 294 295 294 295 295 295 294 294 290 289 289 287 287 287 285 286 286 287 288 291 293 290 290 292 293 293 293 294
311 310 310 310 310 309 306 302 306 300 296 294 293 292 291 289 292 293 295 294 293 293 293 293 291 289 288 287 286 286 285 284 287 285 285 286 287 292 292 290 291 293 294 294 294
311 311 310 309 308 306 299 298 296 295 293 288 287 287 288 292 293 292 293 293 293 293 289 288 288 286 286 285 284 285 285 285 285 284 285 287 287 290 294 291 291 293 294 294 294
311 311 310 309 306 302 299 294 292 293 289 288 288 288 289 290 287 290 295 290 290 287 286 287 286 285 285 285 285 285 284 285 285 283 284 286 286 291 293 293 292 294 295 294 295
311 311 310 307 301 298 295 293 296 295 288 287 289 287 288 290 286 288 291 288 287 286 285 286 284 285 284 284 284 283 284 283 283 284 283 283 288 290 289 288 290 291 292 293 293
311 310 309 304 300 294 292 295 297 295 290 287 285 287 289 290 286 290 290 289 285 285 284 283 283 283 283 282 283 282 283 282 282 284 284 283 284 290 292 291 291 293 293 293 292
312 310 307 300 295 293 293 296 296 294 286 286 285 291 289 287 286 288 290 289 285 283 284 283 282 282 282 282 282 282 283 282 282 282 282 282 283 290 288 292 292 292 293 293 293
312 309 306 300 297 295 296 296 295 290 284 285 285 284 285 286 286 287 288 290 288 285 284 281 284 283 283 282 283 283 282 282 282 282 282 281 282 289 292 291 291 291 292 292 292
312 308 303 298 299 296 297 295 288 286 286 287 285 284 283 283 284 284 285 285 285 286 285 281 281 282 282 281 283 282 282 285 284 282 283 279 279 289 291 291 291 291 292 292 293
313 307 302 301 299 296 295 293 284 286 285 282 282 282 283 283 283 283 283 284 284 285 282 284 282 280 282 281 282 282 283 285 280 280 281 278 280 290 291 290 290 290 292 291 292
311 299 299 300 298 296 295 285 288 286 286 282 281 281 285 280 282 282 283 284 286 286 288 282 280 280 281 281 281 281 281 282 279 273 278 283 285 290 291 290 291 292 291 293 293
302 297 297 297 295 292 286 289 288 287 284 283 284 285 285 282 281 281 283 286 284 284 283 285 283 278 280 281 281 281 283 280 281 278 277 279 280 286 289 290 290 291 292 293 294
301 293 294 294 293 287 286 287 288 287 286 284 285 282 284 282 283 283 287 286 284 281 282 285 286 277 279 278 280 279 280 278 280 281 280 278 283 292 291 292 292 292 292 293 293
296 286 292 292 285 285 286 288 288 285 284 284 284 285 284 283 282 280 285 286 286 284 282 284 287 278 280 278 279 279 280 282 283 280 277 277 282 289 290 290 290 292 292 293 293
292 290 292 292 285 284 284 282 283 282 284 283 283 284 284 282 282 281 281 283 285 284 284 283 284 280 278 278 278 277 279 281 279 279 277 280 285 286 286 287 290 290 292 293 293
291 285 285 286 286 288 287 285 286 284 285 284 284 283 281 280 282 283 280 282 283 284 284 284 282 284 283 288 282 275 277 279 282 280 281 280 285 289 291 289 291 291 292 293 293
290 286 287 282 281 285 289 289 287 286 283 283 282 283 282 279 280 279 281 280 281 283 284 284 279 277 279 278 278 280 277 277 277 281 280 286 284 287 290 292 293 294 292 290 290
284 285 286 287 286 284 286 286 287 289 286 283 282 288 283 284 285 285 283 281 283 281 281 279 280 274 275 276 277 276 279 277 279 281 281 282 281 289 292 292 291 292 292 290 291
291 291 286 285 285 284 284 286 287 290 291 292 287 287 282 285 290 289 287 286 286 282 280 277 276 276 278 275 275 274 277 277 280 281 282 280 285 291 290 290 291 291 291 289 290
Wind_Speed
15 14 14 14 14 14 13 11 11 10 10 10 9 7 7 7 1 3 6 6 8 15 11 3 2 3 2 4 2 2 5 6 6 8 5 8 8 3 1 3 4 5 3 4 11
14 14 14 14 14 13 13 13 11 10 10 10 10 9 8 5 1 7 1 13 12 9 5 3 6 4 4 3 2 4 5 5 2 2 4 9 6 7 5 6 7 6 6 7 9
15 15 15 15 15 15 15 13 13 12 11 9 10 9 8 2 3 1 8 14 11 5 4 1 2 1 4 1 3 2 3 3 4 3 2 6 4 3 5 9 11 11 14 13 11
15 16 16 16 16 16 15 15 14 13 11 10 10 11 4 3 2 1 15 14 8 4 4 3 1 2 4 4 2 4 3 2 4 2 3 4 1 5 11 3 1 7 11 14 14
15 15 15 16 16 17 17 15 15 13 11 10 9 7 2 1 2 7 15 9 1 1 2 2 1 2 5 5 3 3 5 3 2 2 1 1 6 7 14 14 4 6 9 14 14
16 16 16 16 16 17 17 16 16 12 10 8 9 8 2 1 1 7 9 4 6 1 3 3 2 3 8 3 1 4 5 6 1 1 1 3 4 2 3 7 13 11 13 14 15
15 16 17 18 18 18 17 17 15 10 8 7 7 2 4 2 3 7 7 3 4 2 4 3 3 2 4 5 4 7 3 2 4 0 1 2 9 16 7 2 14 16 14 15 16
15 17 18 18 19 20 17 16 12 8 5 3 2 2 3 0 2 5 6 1 4 4 6 3 6 8 3 6 4 3 2 5 3 1 2 3 6 3 4 11 13 17 16 15 17
16 17 18 19 20 19 17 13 6 2 4 2 0 2 2 1 2 4 4 2 3 3 4 3 4 5 3 6 4 3 3 5 3 1 2 7 8 2 3 8 13 16 18 17 17
15 17 19 20 20 18 16 2 4 1 4 0 2 1 2 0 3 4 3 3 1 2 2 3 3 4 2 5 3 6 5 4 5 3 3 7 21 16 9 9 14 14 16 18 18
16 17 18 19 20 16 5 1 1 2 8 2 1 2 3 6 1 2 3 1 1 3 4 2 4 6 3 1 2 2 1 4 1 2 4 8 18 22 15 15 19 20 19 18 19
15 17 20 21 12 11 3 6 3 2 3 0 1 2 1 1 2 2 6 2 2 3 1 2 5 4 5 3 2 2 2 4 1 1 3 6 20 24 20 18 19 18 17 18 17
14 16 20 22 3 6 7 4 1 2 2 0 0 0 1 2 0 2 5 1 1 4 3 3 3 5 3 4 5 2 3 2 3 4 2 9 11 8 2 4 10 13 13 11 13
13 15 19 20 2 2 4 1 1 2 3 2 2 1 1 1 1 1 3 1 2 4 3 3 3 4 4 3 2 3 3 3 1 3 4 4 8 7 3 9 9 9 8 8 9
10 11 14 13 1 3 1 1 1 3 3 2 3 1 1 1 2 2 1 1 3 4 3 3 6 4 3 1 2 2 3 2 1 0 3 3 6 7 2 2 2 3 5 4 5
7 7 10 2 1 2 1 2 2 5 8 1 1 2 3 1 1 2 1 5 2 3 5 3 2 2 2 3 2 9 3 2 2 1 4 2 4 5 4 1 1 2 3 3 5
8 3 2 0 4 3 1 2 5 4 1 3 2 1 2 3 3 1 2 4 4 4 5 1 2 1 1 3 2 2 3 2 2 3 3 2 4 12 5 4 4 1 1 3 5
11 7 4 2 4 3 2 5 4 1 6 1 3 3 4 4 3 4 4 4 6 2 3 6 5 6 3 2 2 6 3 4 6 4 1 2 8 5 4 3 4 5 5 2 4
7 1 2 3 7 3 1 3 7 7 3 6 1 2 2 2 2 4 7 7 8 12 7 5 2 1 2 2 3 6 6 3 6 2 3 3 6 15 7 8 11 10 7 8 5
1 1 3 8 5 3 3 9 7 4 5 3 6 5 5 4 5 5 6 4 4 4 1 6 2 1 2 1 2 3 2 3 2 5 6 4 6 9 2 3 3 3 8 8 6
2 0 3 1 1 3 9 8 8 7 7 8 6 4 5 5 4 5 4 2 5 6 2 2 1 3 1 9 9 5 4 2 4 3 4 2 6 6 9 7 4 3 3 3 4
3 3 3 3 3 2 6 6 9 5 2 4 3 7 9 7 7 5 7 5 8 11 10 8 3 5 3 2 2 3 5 8 5 5 2 3 8 3 5 4 4 7 7 6 6
4 3 2 4 9 7 3 4 3 5 10 9 10 9 6 10 4 9 6 2 9 8 7 9 4 3 3 3 1 7 8 6 4 2 9 5 5 3 4 7 7 9 7 7 7
4 4 3 3 2 10 8 7 9 5 5 6 5 5 4 6 8 6 8 4 8 6 3 6 4 6 11 4 7 7 9 12 6 6 6 17 18 8 10 12 10 11 12 12 11
4 6 5 6 8 10 11 9 20 13 5 5 6 15 10 8 9 9 5 4 4 7 5 6 8 5 4 1 4 4 6 16 19 22 14 11 21 18 20 22 16 14 11 12 13
5 5 2 6 2 15 15 22 24 20 14 11 17 16 15 21 19 14 11 8 9 8 9 4 4 4 5 5 6 7 13 13 23 15 24 21 32 13 19 17 20 22 16 16 17
4 7 6 6 8 11 15 19 22 19 18 22 20 18 17 28 16 7 3 4 3 10 15 9 8 6 14 4 4 11 23 21 12 16 17 19 32 10 20 20 18 18 13 16 16
Wind_Direction
24 21 15 10 7 0 359 353 348 337 333 333 332 334 341 338 336 30 43 324 309 311 310 277 207 161 184 101 43 231 217 221 191 174 155 155 187 157 16 198 206 202 258 90 134
20 13 11 5 0 354 351 345 347 339 334 329 323 323 324 334 101 65 5 323 313 306 254 159 126 141 95 91 65 232 233 205 65 119 156 162 201 170 218 203 224 214 193 160 166
10 7 4 360 356 352 346 343 340 339 331 324 315 315 304 289 206 42 326 331 318 281 228 111 119 117 90 63 30 66 266 114 104 80 119 158 202 188 222 228 230 216 191 184 188
6 2 359 353 351 345 342 340 338 331 325 323 323 323 277 200 237 28 338 333 331 172 182 138 152 114 106 136 45 145 81 0 124 121 160 176 150 232 223 236 31 220 187 180 195
1 357 355 349 345 341 337 336 331 322 320 318 320 336 252 116 28 344 332 338 34 192 52 129 133 132 125 116 135 105 139 87 77 93 99 259 236 262 251 242 223 186 181 193 202
357 354 349 344 342 337 333 330 329 318 310 312 321 328 285 221 326 334 339 1 25 10 78 31 128 111 99 79 314 112 132 129 139 48 55 274 236 263 237 243 211 199 204 207 209
352 349 345 341 338 335 331 327 327 319 303 314 322 342 59 91 341 352 11 19 341 4 94 33 95 41 134 123 131 123 111 180 196 235 200 301 243 229 215 144 205 210 214 215 217
348 346 343 339 336 332 328 327 324 324 316 310 345 301 97 51 351 10 344 69 23 38 85 93 88 93 41 123 88 146 225 211 125 280 160 251 259 185 210 209 215 217 218 221 223
345 344 342 340 335 330 329 325 326 33 24 74 11 320 123 128 40 338 3 16 324 73 59 87 66 75 165 165 152 189 224 224 194 139 279 229 275 204 176 211 231 222 221 221 225
342 342 341 339 335 329 328 300 353 13 8 156 104 315 75 32 325 342 334 347 64 122 125 55 86 135 156 209 218 175 216 217 241 131 222 229 261 261 229 231 237 235 228 226 225
339 339 340 339 333 337 338 105 299 192 46 45 23 333 343 324 288 28 359 280 163 83 191 28 198 205 157 85 45 52 232 252 148 87 302 257 274 274 264 246 248 243 239 234 231
335 338 338 339 338 359 30 66 70 1 293 108 290 282 249 9 311 20 347 211 195 184 177 165 228 118 110 118 129 154 233 246 205 158 288 289 279 275 264 245 246 252 240 236 235
331 339 340 341 42 42 60 63 26 206 251 123 107 295 351 350 20 311 350 79 96 154 208 219 98 139 159 154 165 166 231 226 303 305 241 297 261 260 169 243 244 249 249 247 239
328 341 345 339 77 344 54 54 188 238 60 213 191 108 170 69 250 333 16 46 73 173 127 93 136 173 165 176 206 220 133 115 345 302 280 333 293 305 261 286 243 243 223 229 219
318 341 354 27 341 48 14 304 237 239 319 104 145 134 82 191 9 96 39 238 159 132 209 135 164 170 187 108 178 99 152 125 140 137 314 171 251 266 355 253 18 28 192 212 219
280 331 348 9 58 97 221 172 210 42 249 263 270 164 162 102 124 308 89 64 80 105 52 75 20 353 48 75 45 134 132 111 120 197 240 91 269 269 230 103 95 79 114 163 172
238 223 2 156 321 140 191 237 20 185 36 216 193 206 170 154 156 175 179 174 193 144 190 139 153 94 232 127 100 211 198 259 237 190 257 131 230 261 282 247 239 59 104 161 169
227 172 174 215 151 164 249 48 207 254 233 51 150 141 222 172 197 161 156 237 218 165 138 186 230 178 147 273 246 188 266 231 242 220 73 131 232 246 193 242 268 279 237 260 210
169 125 209 193 161 165 114 183 216 209 146 164 110 199 244 215 221 204 215 204 193 180 188 155 180 65 21 341 309 149 218 10 101 71 256 232 261 278 236 255 241 232 227 238 239
186 171 244 138 167 109 119 220 221 200 150 161 220 191 217 194 188 201 180 177 188 199 263 181 148 93 74 286 100 267 99 153 236 208 231 221 273 252 174 156 113 166 207 226 243
195 118 59 58 231 83 220 214 212 211 161 186 211 184 216 210 219 210 209 251 169 138 62 122 227 111 188 198 181 166 208 228 295 260 249 232 233 227 207 207 198 170 164 233 240
153 246 119 258 131 251 233 191 173 185 180 235 258 222 195 171 203 244 230 247 168 158 171 182 126 180 194 54 318 280 222 196 225 200 253 336 259 203 226 235 223 243 256 245 242
244 191 132 284 217 220 223 266 227 153 189 185 217 213 187 189 218 196 205 65 168 184 159 180 202 162 187 178 173 230 203 216 113 96 193 207 238 93 223 258 249 246 241 242 244
288 244 161 211 275 225 212 219 224 210 241 181 181 121 157 206 232 210 211 184 189 199 160 146 196 205 229 178 121 194 197 200 205 209 195 226 249 243 257 236 237 245 256 261 260
226 242 187 213 233 228 219 225 234 220 203 234 215 221 167 213 215 216 212 163 184 209 182 180 221 186 266 235 204 218 182 191 204 223 222 253 238 234 248 262 277 279 276 274 267
272 246 308 259 178 201 219 234 236 229 193 218 230 219 207 227 217 219 195 193 198 165 181 191 220 155 248 200 227 263 232 205 217 231 249 264 270 243 264 281 272 269 271 266 265
232 245 282 264 249 238 229 244 247 234 230 220 212 232 222 234 248 271 125 107 228 182 184 172 167 164 252 135 158 264 227 209 207 213 218 230 247 250 261 254 258 271 259 249 248